Date,TemperatureHighF,TemperatureAvgF,TemperatureLowF,DewpointHighF,DewpointAvgF,DewpointLowF,HumidityHigh,HumidityAvg,HumidityLow,PressureMaxIn,PressureMinIn,WindSpeedMaxMPH,WindSpeedAvgMPH,GustSpeedMaxMPH,PrecipitationSumIn
2014-1-1,17.7,6.0,-2.6,14.0,4.4,-6.0,95,87,79,30.42,30.09,0,0,0,0.00
2014-1-2,-2.8,-8.1,-11.1,-6.0,-7.3,-13.0,87,85,82,30.49,30.00,0,0,0,0.00
2014-1-3,-3.1,-7.8,-11.1,-6.0,-6.5,-13.0,88,86,82,30.32,29.85,0,0,0,0.00
2014-1-4,20.7,5.7,-11.4,18.0,4.2,-13.0,97,87,71,30.44,30.18,0,0,0,0.00
2014-1-5,34.9,22.9,13.5,28.0,21.3,11.0,100,91,72,30.31,30.15,0,0,0,0.20
2014-1-6,50.5,41.9,27.0,50.0,42.0,28.0,100,100,91,30.15,29.26,38,7,38,3.08
2014-1-7,29.0,14.5,4.0,28.0,4.8,-6.0,91,62,36,29.99,29.32,32,4,32,0.00
2014-1-8,20.4,10.3,3.8,8.0,2.9,-6.0,80,67,50,30.36,29.98,14,2,14,0.00
2014-1-9,21.5,13.3,7.0,11.0,4.8,0.0,83,65,44,30.61,30.33,11,2,22,0.00
2014-1-10,27.1,19.9,8.3,24.0,16.3,4.0,99,83,67,30.58,30.30,10,1,10,0.00
2014-1-11,51.4,39.9,23.5,51.0,40.0,23.0,100,100,96,30.31,29.27,30,6,30,0.53
2014-1-12,48.8,40.9,33.0,49.0,36.0,26.0,100,83,61,29.84,29.21,25,3,25,0.06
2014-1-13,43.0,36.3,29.7,39.0,29.3,24.0,97,76,51,30.11,29.84,19,4,19,0.00
2014-1-14,46.0,43.4,40.6,46.0,43.4,39.0,100,99,94,29.96,29.54,18,4,19,0.97
2014-1-15,45.3,39.1,34.2,41.0,37.8,35.0,100,95,72,30.07,29.54,11,3,19,0.06
2014-1-16,37.4,34.8,33.5,37.0,35.3,33.0,100,100,100,29.98,29.92,11,2,11,0.00
2014-1-17,40.1,35.2,29.5,40.0,35.2,31.0,100,99,92,30.01,29.92,19,2,19,0.00
2014-1-18,32.2,30.7,29.2,31.0,30.0,26.0,100,96,86,29.95,29.68,12,1,12,0.00
2014-1-19,32.0,28.5,22.0,32.0,28.8,23.0,100,100,97,29.71,29.41,18,2,18,0.00
2014-1-20,32.0,23.6,4.6,31.0,22.7,0.0,99,94,78,29.84,29.46,20,3,20,0.01
2014-1-21,8.9,3.3,-2.7,4.0,-1.1,-6.0,82,73,58,30.07,29.80,20,3,20,0.00
2014-1-22,3.1,0.2,-2.2,0.0,-3.5,-6.0,81,78,74,29.98,29.56,26,6,26,0.00
2014-1-23,15.6,4.4,-5.3,4.0,-1.0,-6.0,81,70,55,30.04,29.79,15,3,15,0.00
2014-1-24,13.5,4.6,-1.6,0.0,-1.9,-6.0,76,65,48,30.14,30.03,14,2,14,0.00
2014-1-25,37.2,25.8,5.6,35.0,23.0,0.0,100,87,64,30.03,29.21,30,6,30,0.18
2014-1-26,31.2,14.0,6.7,31.0,7.3,-6.0,100,71,45,29.93,29.18,22,3,22,0.00
2014-1-27,42.2,26.1,9.4,41.0,21.3,-6.0,100,80,39,29.92,29.46,34,5,34,0.10
2014-1-28,17.2,11.2,3.9,4.0,-2.6,-6.0,70,49,35,30.27,29.90,23,2,23,0.00
2014-1-29,23.2,13.7,8.3,4.0,1.3,0.0,72,54,32,30.20,29.87,11,1,11,0.00
2014-1-30,25.5,17.2,6.4,21.0,7.9,0.0,85,65,45,30.40,30.09,10,2,13,0.00
2014-1-31,38.9,30.3,23.7,28.0,21.1,16.0,89,69,43,30.17,29.96,23,3,27,0.00
2014-2-1,37.8,30.7,23.5,32.0,22.1,16.0,100,70,47,30.36,30.06,15,2,15,0.00
2014-2-2,38.9,35.1,31.5,38.0,35.2,29.0,100,99,96,30.06,29.87,11,2,11,0.14
2014-2-3,31.4,24.7,14.2,29.0,19.4,11.0,97,78,64,30.29,30.04,17,3,17,0.00
2014-2-4,30.0,19.5,10.3,16.0,12.1,8.0,91,71,48,30.44,30.28,11,2,11,0.00
2014-2-5,19.2,17.3,14.5,21.0,15.9,11.0,96,89,72,30.40,29.76,18,3,19,0.00
2014-2-6,21.5,12.3,2.0,16.0,10.9,4.0,95,88,69,30.23,29.90,16,2,16,0.04
2014-2-7,25.7,17.0,9.8,16.0,11.1,8.0,90,74,54,30.16,30.08,12,1,12,0.02
2014-2-8,26.7,17.6,11.3,11.0,8.4,4.0,86,64,46,30.20,30.09,15,2,15,0.02
2014-2-9,25.5,17.0,10.8,14.0,8.2,4.0,85,63,44,30.18,29.99,10,1,10,0.00
2014-2-10,23.0,16.3,9.3,18.0,11.3,4.0,94,77,55,30.15,29.92,16,3,16,0.00
2014-2-11,20.7,11.3,2.7,8.0,2.7,-6.0,83,63,43,30.35,30.14,18,4,18,0.00
2014-2-12,24.9,12.1,1.5,11.0,-0.7,-6.0,81,54,30,30.50,30.35,15,3,15,0.00
2014-2-13,32.7,25.9,14.1,33.0,24.8,8.0,100,93,80,30.45,29.26,23,4,27,0.00
2014-2-14,37.4,30.0,19.8,37.0,29.4,16.0,100,97,83,29.62,28.70,25,5,25,0.78
2014-2-15,31.5,24.8,16.3,28.0,22.0,14.0,99,88,72,29.93,29.46,18,3,18,0.06
2014-2-16,26.5,19.8,11.3,23.0,15.9,4.0,99,80,58,29.84,29.31,28,7,33,0.00
2014-2-17,22.4,13.2,6.8,8.0,2.5,0.0,80,59,44,30.32,29.84,23,5,27,0.00
2014-2-18,26.4,16.4,3.4,26.0,10.9,-6.0,99,74,51,30.38,29.91,22,3,22,0.00
2014-2-19,33.0,27.7,18.7,32.0,27.4,21.0,100,97,86,30.07,29.73,13,4,17,0.13
2014-2-20,45.2,35.6,29.5,36.0,28.4,18.0,100,76,44,30.25,29.74,17,2,19,0.35
2014-2-21,44.6,33.6,29.9,45.0,32.4,24.0,100,94,70,30.26,29.67,29,6,29,0.60
2014-2-22,45.6,37.6,30.7,41.0,32.4,24.0,100,82,54,29.90,29.70,20,4,23,0.01
2014-2-23,41.4,34.9,26.9,32.0,25.9,16.0,89,69,54,29.97,29.76,14,2,14,0.00
2014-2-24,34.5,27.0,13.2,32.0,13.7,4.0,89,55,37,29.83,29.65,20,5,24,0.00
2014-2-25,22.8,14.6,8.6,8.0,3.7,0.0,70,57,43,29.90,29.79,13,3,17,0.00
2014-2-26,24.9,14.1,3.2,16.0,7.8,0.0,89,71,51,29.91,29.72,15,2,15,0.00
2014-2-27,22.6,12.7,4.0,16.0,5.9,-6.0,94,71,43,29.85,29.64,11,2,12,0.00
2014-2-28,21.5,13.8,5.9,11.0,0.7,-6.0,92,54,29,30.45,29.72,20,4,20,0.00
2014-3-1,30.9,18.4,2.1,28.0,10.2,-6.0,86,67,49,30.47,30.05,20,4,22,0.00
2014-3-2,29.8,24.7,13.0,26.0,14.1,0.0,93,63,38,30.05,29.98,14,3,14,0.00
2014-3-3,21.1,11.8,2.1,4.0,-2.0,-13.0,64,47,33,30.28,30.00,11,4,21,0.00
2014-3-4,25.9,12.9,-1.7,11.0,-0.4,-13.0,68,49,31,30.34,30.24,13,2,13,0.00
2014-3-5,20.4,11.9,6.0,11.0,1.4,-13.0,84,58,38,30.48,30.28,14,3,15,0.00
2014-3-6,27.1,14.9,1.0,4.0,-7.8,-13.0,57,33,18,30.59,30.48,12,3,16,0.00
2014-3-7,36.2,26.0,14.7,26.0,14.4,0.0,97,60,37,30.50,30.00,21,3,21,0.00
2014-3-8,45.1,32.9,25.3,33.0,25.0,16.0,100,74,41,30.00,29.71,19,3,19,0.00
2014-3-9,32.7,24.3,15.5,16.0,7.1,0.0,74,47,26,29.92,29.83,18,4,19,0.00
2014-3-10,35.7,23.6,16.6,23.0,11.9,0.0,89,58,40,29.89,29.72,12,2,12,0.00
2014-3-11,43.6,34.1,24.8,43.0,32.1,23.0,100,91,77,29.73,29.53,14,3,14,0.07
2014-3-12,39.0,33.1,30.2,33.0,30.7,26.0,100,90,72,29.77,29.16,15,3,19,0.92
2014-3-13,31.5,15.1,9.4,31.0,15.1,8.0,100,95,92,29.75,29.02,23,6,31,0.00
2014-3-14,31.6,18.0,1.7,28.0,12.7,0.0,92,78,51,30.10,29.75,20,3,20,0.02
2014-3-15,42.2,36.4,31.6,41.0,35.4,28.0,100,95,83,29.93,29.66,26,4,26,0.52
2014-3-16,32.1,23.2,8.1,32.0,12.0,-6.0,100,60,39,30.18,29.74,24,5,24,0.01
2014-3-17,21.8,11.6,3.3,0.0,-2.9,-6.0,67,47,32,30.19,30.02,19,4,19,0.00
2014-3-18,34.9,20.2,7.5,11.0,1.3,-6.0,62,41,26,30.39,30.16,15,3,15,0.00
2014-3-19,37.7,28.7,18.2,24.0,11.6,0.0,79,48,29,30.46,30.15,13,3,13,0.00
2014-3-20,44.2,35.6,29.3,44.0,35.0,24.0,100,97,79,30.15,28.99,19,4,24,0.92
2014-3-21,39.6,33.3,27.0,33.0,26.5,21.0,100,76,54,29.93,29.63,19,3,19,0.01
2014-3-22,35.8,29.9,22.7,33.0,25.0,18.0,100,81,55,30.01,29.67,17,3,23,0.00
2014-3-23,37.1,26.1,9.8,31.0,15.5,0.0,96,65,31,30.05,29.87,15,4,23,0.02
2014-3-24,24.4,13.3,3.2,4.0,-0.6,-6.0,65,50,34,30.10,29.97,22,5,22,0.00
2014-3-25,32.1,21.3,9.4,23.0,8.8,0.0,79,56,35,30.15,29.62,18,3,18,0.00
2014-3-26,25.5,22.2,18.6,24.0,18.2,11.0,97,82,55,30.08,29.45,35,6,35,0.00
2014-3-27,35.6,23.9,11.9,18.0,7.2,0.0,73,46,29,30.25,29.67,27,5,27,0.00
2014-3-28,41.4,35.9,28.9,41.0,32.9,18.0,100,88,62,30.25,29.95,25,4,25,0.12
2014-3-29,54.4,42.9,36.1,41.0,36.7,32.0,100,81,47,30.33,29.97,15,3,15,0.02
2014-3-30,36.0,33.0,31.3,35.0,33.0,31.0,100,100,92,30.24,29.77,24,6,24,1.90
2014-3-31,33.2,30.5,28.2,32.0,30.5,28.0,100,99,93,30.00,29.72,24,6,29,0.02
2014-4-1,48.1,34.7,26.9,29.0,22.6,14.0,99,65,24,30.14,29.97,26,5,26,0.09
2014-4-2,43.7,32.3,23.8,31.0,22.3,11.0,99,66,47,30.17,30.09,13,3,13,0.00
2014-4-3,45.6,36.1,27.6,36.0,27.2,21.0,100,72,37,30.16,30.06,15,2,15,0.00
2014-4-4,48.5,35.7,26.1,33.0,24.8,18.0,93,65,42,30.23,30.06,14,4,15,0.00
2014-4-5,42.5,37.3,32.5,43.0,37.1,29.0,100,99,80,30.09,29.61,22,5,23,0.56
2014-4-6,49.2,38.8,31.0,29.0,23.9,21.0,81,56,33,30.16,29.78,26,4,26,0.00
2014-4-7,58.4,43.8,32.4,35.0,27.1,21.0,88,53,34,30.29,30.11,18,3,18,0.00
2014-4-8,48.2,43.0,36.9,48.0,42.8,35.0,100,99,85,30.12,29.34,34,6,34,0.84
2014-4-9,50.2,41.3,30.6,44.0,29.3,11.0,100,65,31,29.89,29.36,25,5,25,0.00
2014-4-10,47.5,37.9,23.6,32.0,22.4,14.0,71,53,33,30.15,29.89,27,5,27,0.00
2014-4-11,67.0,51.1,40.7,45.0,37.3,28.0,96,63,28,30.07,29.93,20,4,21,0.01
2014-4-12,63.9,52.5,42.2,32.0,27.5,23.0,56,39,25,30.29,30.03,20,3,20,0.00
2014-4-13,45.8,39.0,35.3,44.0,32.0,21.0,100,78,43,30.43,30.09,18,5,18,0.16
2014-4-14,63.4,52.1,42.4,55.0,48.9,42.0,100,90,72,30.09,29.90,31,7,36,0.00
2014-4-15,55.6,53.0,50.1,55.0,52.3,50.0,100,98,94,29.96,29.64,33,9,33,0.46
2014-4-16,54.2,32.1,23.4,54.0,24.6,14.0,100,75,41,30.66,29.65,25,6,25,0.65
2014-4-17,47.2,32.0,19.8,24.0,17.8,14.0,79,58,28,30.87,30.65,13,2,13,0.00
2014-4-18,46.2,34.8,25.4,31.0,26.6,21.0,92,72,44,30.72,30.27,15,4,15,0.00
2014-4-19,48.9,38.5,29.0,40.0,30.1,23.0,97,74,49,30.40,30.14,17,4,26,0.01
2014-4-20,56.8,40.7,30.4,32.0,24.8,18.0,88,55,23,30.56,30.36,18,4,18,0.00
2014-4-21,55.5,44.3,35.0,39.0,33.3,24.0,98,70,32,30.36,29.87,20,5,21,0.00
2014-4-22,58.1,47.1,39.8,46.0,42.7,40.0,100,86,56,29.88,29.56,18,4,18,0.00
2014-4-23,57.3,46.1,36.2,52.0,44.1,36.0,100,93,71,29.56,29.44,23,4,23,0.53
2014-4-24,43.8,37.8,35.6,40.0,36.5,33.0,100,94,80,29.87,29.13,33,8,33,0.13
2014-4-25,56.7,44.1,33.0,37.0,33.3,28.0,96,69,36,29.99,29.86,21,4,23,0.01
2014-4-26,47.1,39.5,35.3,40.0,36.5,32.0,100,89,61,29.99,29.90,12,2,12,0.24
2014-4-27,48.5,41.8,36.2,42.0,38.6,36.0,100,89,70,30.01,29.91,20,3,20,0.10
2014-4-28,47.6,42.1,37.4,41.0,37.7,32.0,99,85,72,30.35,29.98,24,5,24,0.06
2014-4-29,53.9,41.7,33.2,36.0,33.4,31.0,94,74,46,30.62,30.35,22,4,22,0.00
2014-4-30,47.5,38.7,32.4,37.0,34.0,29.0,95,82,65,30.64,30.35,11,3,11,0.00
2014-5-1,48.0,42.4,36.5,48.0,42.4,36.0,100,100,95,30.35,29.72,23,4,23,0.61
2014-5-2,66.2,52.5,42.9,55.0,45.7,40.0,100,80,47,29.82,29.66,22,2,22,0.04
2014-5-3,62.0,51.8,43.7,43.0,39.9,37.0,87,66,40,29.89,29.80,16,2,16,0.00
2014-5-4,50.8,45.3,42.0,49.0,44.0,40.0,100,96,85,29.81,29.49,12,3,12,0.25
2014-5-5,57.2,48.1,40.1,44.0,40.4,36.0,100,77,45,29.80,29.56,23,5,23,0.00
2014-5-6,61.9,49.8,41.2,46.0,39.9,37.0,91,70,48,30.00,29.80,14,3,15,0.00
2014-5-7,66.0,52.1,40.5,40.0,37.2,31.0,90,60,30,30.20,29.99,16,3,16,0.00
2014-5-8,66.2,54.7,44.5,38.0,29.4,21.0,72,40,18,30.30,30.15,17,4,17,0.00
2014-5-9,60.9,49.1,40.0,42.0,32.7,24.0,89,56,32,30.34,30.17,16,4,16,0.00
2014-5-10,59.6,51.4,45.4,59.0,50.2,41.0,100,96,85,30.17,29.75,18,4,20,0.38
2014-5-11,74.3,63.2,53.3,57.0,44.1,36.0,100,54,29,30.04,29.75,20,4,20,0.00
2014-5-12,67.5,52.7,41.9,47.0,43.6,36.0,98,73,42,30.26,30.04,15,4,15,0.00
2014-5-13,63.4,47.9,37.7,39.0,35.1,28.0,94,64,27,30.37,30.25,14,3,14,0.00
2014-5-14,52.2,45.3,38.8,44.0,40.4,32.0,98,83,67,30.43,30.35,17,4,17,0.00
2014-5-15,67.1,51.9,43.4,56.0,49.5,42.0,100,93,68,30.40,30.33,19,4,19,0.00
2014-5-16,68.9,58.0,48.7,56.0,52.5,49.0,100,84,63,30.35,30.22,27,5,27,0.00
2014-5-17,57.7,53.6,49.3,54.0,52.4,49.0,100,96,85,30.22,30.05,24,6,24,0.38
2014-5-18,57.6,51.6,48.0,56.0,51.3,48.0,100,99,93,30.14,30.05,13,2,13,0.10
2014-5-19,54.1,50.3,48.0,54.0,50.2,48.0,100,100,100,30.05,29.97,12,3,13,0.63
2014-5-20,59.9,53.2,49.1,55.0,52.0,49.0,100,96,81,30.03,29.96,18,4,18,0.17
2014-5-21,61.7,53.9,49.8,57.0,53.2,50.0,100,98,80,30.07,30.00,10,2,10,0.05
2014-5-22,68.5,56.3,47.3,58.0,50.5,45.0,100,84,46,30.04,29.95,13,2,13,0.01
2014-5-23,65.4,52.9,46.2,54.0,49.7,45.0,100,90,68,30.07,29.96,11,2,11,0.00
2014-5-24,64.3,51.7,44.7,50.0,46.5,43.0,99,84,58,30.13,30.05,10,2,10,0.01
2014-5-25,66.5,53.5,44.4,51.0,47.3,44.0,100,82,52,30.15,30.05,8,2,10,0.00
2014-5-26,76.8,60.2,47.3,63.0,54.9,47.0,100,85,58,30.06,29.73,11,2,11,0.09
2014-5-27,59.2,51.7,45.6,54.0,47.3,43.0,100,86,60,30.11,29.85,15,2,15,0.02
2014-5-28,59.9,46.5,40.9,45.0,42.2,40.0,100,87,56,30.27,30.08,14,2,14,0.13
2014-5-29,71.0,54.4,39.7,42.0,36.8,28.0,95,56,28,30.30,30.18,14,3,15,0.00
2014-5-30,60.6,49.6,41.4,50.0,44.3,36.0,100,83,58,30.19,30.10,15,3,16,0.00
2014-5-31,71.0,56.1,40.2,46.0,37.1,29.0,100,57,21,30.33,30.16,15,2,15,0.00
2014-6-1,76.8,62.2,47.7,45.0,41.6,37.0,79,50,28,30.40,30.27,13,2,13,0.00
2014-6-2,74.5,58.9,47.4,54.0,47.4,39.0,94,68,45,30.27,30.10,13,3,13,0.00
2014-6-3,70.7,58.4,48.7,52.0,46.8,39.0,99,70,37,30.15,30.04,16,4,18,0.00
2014-6-4,55.4,52.6,49.9,55.0,52.5,50.0,100,100,99,30.04,29.88,10,2,10,0.07
2014-6-5,56.8,54.3,51.3,56.0,54.2,51.0,100,100,100,29.89,29.66,14,2,14,0.38
2014-6-6,66.8,59.6,55.9,62.0,58.0,56.0,100,96,79,29.83,29.63,18,4,19,0.15
2014-6-7,81.8,68.6,54.9,60.0,56.3,53.0,96,69,39,29.95,29.83,18,3,18,0.00
2014-6-8,80.2,70.1,59.3,61.0,57.8,54.0,87,67,47,30.00,29.91,13,3,13,0.00
2014-6-9,91.7,72.5,58.4,65.0,58.5,52.0,91,66,30,30.01,29.93,11,1,11,0.00
2014-6-10,70.2,61.9,53.2,61.0,56.1,51.0,95,83,69,30.18,30.01,19,2,19,0.03
2014-6-11,78.6,64.1,52.1,56.0,50.6,43.0,97,65,31,30.25,30.18,12,2,12,0.00
2014-6-12,62.1,57.0,50.7,56.0,50.9,47.0,97,81,71,30.31,30.23,8,1,8,0.04
2014-6-13,63.6,54.4,50.7,55.0,52.0,48.0,100,92,72,30.26,29.94,23,6,23,1.25
2014-6-14,69.4,60.5,53.2,66.0,58.7,53.0,100,95,80,29.95,29.85,14,2,14,0.20
2014-6-15,69.8,63.3,58.1,59.0,54.2,47.0,99,75,55,30.05,29.88,22,4,22,0.01
2014-6-16,76.3,64.0,53.9,50.0,45.3,42.0,77,53,32,30.16,30.04,19,3,20,0.00
2014-6-17,72.9,62.3,54.6,60.0,54.6,49.0,100,77,61,30.15,29.96,9,2,12,0.00
2014-6-18,75.3,63.7,55.3,66.0,60.2,55.0,100,90,68,29.97,29.69,25,3,25,0.74
2014-6-19,76.8,68.3,54.2,60.0,47.7,36.0,91,53,24,30.00,29.88,23,4,23,0.00
2014-6-20,63.7,56.8,50.7,44.0,41.6,38.0,73,58,42,29.98,29.89,20,4,20,0.00
2014-6-21,72.4,61.1,49.6,50.0,47.4,43.0,83,62,43,29.96,29.89,13,3,13,0.00
2014-6-22,76.3,62.9,53.4,55.0,50.7,47.0,87,66,43,30.11,29.95,10,2,10,0.00
2014-6-23,78.8,66.0,53.6,57.0,51.3,46.0,89,62,40,30.22,30.10,17,2,18,0.00
2014-6-24,74.1,63.5,53.9,56.0,51.5,46.0,93,67,49,30.23,30.04,24,4,24,0.00
2014-6-25,72.8,63.1,58.9,65.0,60.2,54.0,100,92,75,30.05,29.96,15,2,15,0.33
2014-6-26,59.9,57.4,55.2,60.0,56.5,53.0,100,98,90,30.04,29.91,22,3,22,1.30
2014-6-27,82.5,66.1,50.6,55.0,49.9,47.0,95,61,29,30.25,30.04,15,2,15,0.00
2014-6-28,89.7,72.8,56.5,62.0,54.4,47.0,74,55,31,30.32,30.24,9,1,9,0.00
2014-6-29,90.0,74.3,61.2,64.0,55.1,48.0,72,53,32,30.28,30.13,12,2,12,0.00
2014-6-30,87.6,72.1,57.8,68.0,61.1,51.0,92,71,48,30.14,29.93,12,2,13,0.00
2014-7-1,86.2,73.8,62.9,72.0,66.3,61.0,96,80,60,29.95,29.83,15,2,16,0.00
2014-7-2,86.0,73.6,65.3,72.0,68.0,64.0,97,84,64,30.01,29.83,17,3,17,0.00
2014-7-3,83.5,70.8,62.7,72.0,67.3,62.0,100,91,68,30.06,29.49,12,3,12,0.00
2014-7-4,80.5,69.5,61.7,72.0,66.0,61.0,100,91,69,30.08,29.85,12,2,12,0.28
2014-7-5,64.9,57.9,52.1,65.0,56.2,52.0,100,95,70,29.86,29.58,37,4,37,2.93
2014-7-6,82.7,69.9,55.5,62.0,58.0,55.0,99,69,46,29.91,29.82,12,2,12,0.00
2014-7-7,80.5,68.2,57.9,65.0,60.1,54.0,100,78,48,29.88,29.76,20,2,20,0.01
2014-7-8,83.5,71.0,61.0,72.0,65.9,61.0,100,87,62,29.84,29.75,16,2,16,0.00
2014-7-9,82.8,71.6,61.3,72.0,65.2,60.0,100,83,57,29.98,29.73,17,3,18,0.00
2014-7-10,83.9,70.3,60.4,65.0,59.1,51.0,100,71,45,30.23,29.96,11,2,12,0.00
2014-7-11,83.0,68.4,58.9,59.0,53.9,50.0,89,63,40,30.29,30.22,10,2,10,0.00
2014-7-12,84.0,70.5,57.2,62.0,56.8,52.0,94,65,39,30.28,30.19,15,2,15,0.00
2014-7-13,78.0,67.6,58.6,66.0,61.7,58.0,100,83,58,30.19,29.96,23,4,23,0.00
2014-7-14,87.7,72.7,64.7,73.0,66.4,60.0,100,84,45,29.96,29.90,18,3,19,0.20
2014-7-15,69.1,66.1,64.7,69.0,65.8,64.0,100,100,100,29.96,29.86,10,2,10,0.75
2014-7-16,66.8,64.6,63.6,66.0,64.1,63.0,100,100,100,29.91,29.87,13,2,13,0.66
2014-7-19,73.2,65.5,62.0,67.0,58.6,56.0,99,80,66,30.34,29.46,5,1,6,0.00
2014-7-20,78.4,68.1,61.4,62.0,58.6,56.0,90,73,53,30.32,30.26,9,1,10,0.00
2014-7-21,82.6,68.5,57.9,65.0,59.0,54.0,95,74,51,30.28,30.20,11,2,11,0.00
2014-7-22,84.7,70.2,58.4,69.0,63.3,58.0,100,82,56,30.22,30.02,12,2,12,0.00
2014-7-23,86.0,73.1,62.2,73.0,67.8,62.0,100,86,63,30.02,29.78,18,2,18,0.00
2014-7-24,75.3,65.6,57.2,68.0,60.9,56.0,100,88,58,29.94,29.80,16,2,16,0.44
2014-7-25,82.1,68.1,56.3,62.0,57.3,51.0,97,71,46,29.99,29.92,12,2,12,0.00
2014-7-26,81.3,68.8,58.6,64.0,60.9,58.0,99,79,50,30.01,29.93,14,2,14,0.00
2014-7-27,75.2,64.1,57.9,67.0,62.3,58.0,100,96,75,29.94,29.80,16,3,16,0.33
2014-7-28,67.1,64.7,62.4,67.0,64.4,62.0,100,100,100,29.80,29.57,13,3,13,0.16
2014-7-29,79.2,66.7,58.6,66.0,62.4,57.0,100,88,59,30.03,29.57,12,2,12,0.00
2014-7-30,75.0,64.7,57.7,63.0,59.9,57.0,100,86,63,30.12,30.02,12,2,12,0.00
2014-7-31,76.3,65.6,58.7,65.0,61.1,59.0,100,88,60,30.24,30.11,13,2,14,0.00
2014-8-1,79.4,68.3,60.0,68.0,63.7,60.0,100,88,63,30.31,30.23,13,2,13,0.00
2014-8-2,77.9,66.3,58.5,69.0,63.2,57.0,100,92,68,30.32,30.23,6,2,10,0.00
2014-8-3,78.5,66.0,55.1,65.0,59.9,55.0,100,83,59,30.24,30.13,10,1,10,0.00
2014-8-4,81.2,67.6,57.8,66.0,62.3,57.0,100,85,60,30.14,30.04,10,1,10,0.00
2014-8-5,86.7,72.8,62.2,69.0,63.1,58.0,100,76,47,30.08,29.96,13,1,13,0.00
2014-8-6,77.7,66.1,62.1,67.0,64.0,60.0,100,95,67,29.96,29.83,13,1,15,0.05
2014-8-7,76.0,63.8,57.2,64.0,59.1,56.0,100,87,53,29.95,29.85,10,2,10,0.18
2014-8-8,76.3,63.6,57.5,65.0,59.8,57.0,100,89,60,30.04,29.93,17,2,17,0.20
2014-8-9,78.7,67.9,59.1,61.0,59.7,58.0,98,78,52,30.13,30.02,15,2,15,0.00
2014-8-10,81.6,68.8,58.4,63.0,58.9,55.0,97,73,46,30.21,30.12,10,2,10,0.00
2014-8-11,75.9,65.6,57.3,66.0,60.1,56.0,99,84,66,30.24,30.19,10,1,10,0.00
2014-8-12,76.2,64.9,56.3,61.0,57.8,55.0,100,81,54,30.26,30.20,12,2,12,0.00
2014-8-13,60.9,58.6,56.8,60.0,58.1,56.0,100,99,95,30.21,29.83,27,4,28,0.21
2014-8-14,67.8,61.0,56.3,64.0,60.1,56.0,100,98,81,29.92,29.75,27,5,30,0.76
2014-8-15,73.0,63.2,56.0,64.0,57.2,52.0,100,84,53,29.95,29.90,10,1,10,0.00
2014-8-16,74.9,63.3,56.8,63.0,58.2,56.0,100,86,58,30.01,29.92,11,1,11,0.00
2014-8-17,70.7,62.3,57.7,63.0,59.8,57.0,100,93,72,29.99,29.81,8,1,8,0.05
2014-8-18,72.0,62.7,56.1,61.0,57.5,53.0,100,85,62,29.90,29.78,14,3,14,0.01
2014-8-19,80.2,65.2,54.9,61.0,56.5,53.0,94,76,49,30.02,29.88,13,2,13,0.00
2014-8-20,84.8,68.5,56.1,63.0,58.9,55.0,99,75,41,30.14,30.02,8,1,8,0.00
2014-8-21,80.2,66.8,59.7,66.0,59.9,54.0,96,80,62,30.22,30.13,10,2,11,0.00
2014-8-22,70.7,63.8,59.3,61.0,59.1,56.0,98,86,68,30.24,30.19,10,1,10,0.00
2014-8-23,74.3,64.4,55.3,60.0,56.5,53.0,97,79,53,30.22,30.17,10,1,12,0.00
2014-8-24,83.9,69.3,56.0,64.0,59.6,54.0,97,75,48,30.20,30.12,13,2,13,0.00
2014-8-25,89.9,73.3,59.0,69.0,63.2,58.0,100,74,46,30.21,30.14,8,2,8,0.00
2014-8-26,81.7,68.6,61.4,69.0,63.3,59.0,100,86,58,30.22,30.07,14,3,14,0.00
2014-8-27,87.5,72.7,60.4,70.0,65.0,59.0,100,80,54,30.08,29.88,10,2,10,0.00
2014-8-28,75.8,66.7,58.2,62.0,56.5,50.0,97,72,43,29.97,29.80,18,4,18,0.02
2014-8-29,72.1,60.9,53.5,52.0,47.9,43.0,90,65,37,30.32,29.97,15,3,15,0.00
2014-8-30,70.4,59.7,51.1,57.0,53.2,50.0,99,82,55,30.36,30.17,18,3,19,0.00
2014-8-31,78.8,67.1,57.0,69.0,64.3,56.0,100,93,71,30.17,29.50,13,3,13,0.09
2014-9-1,84.9,71.5,65.2,74.0,68.4,65.0,100,92,63,30.04,29.98,10,1,10,0.17
2014-9-2,71.6,65.6,59.6,69.0,64.9,59.0,100,99,94,30.03,29.82,10,2,10,0.02
2014-9-3,81.5,70.1,63.4,67.0,61.7,55.0,100,78,47,30.10,29.73,17,3,17,0.01
2014-9-4,80.7,68.2,57.5,62.0,56.4,54.0,91,69,42,30.23,30.09,14,2,17,0.00
2014-9-5,84.3,71.1,58.4,69.0,62.7,56.0,95,78,51,30.19,29.99,12,2,13,0.00
2014-9-6,83.7,70.6,60.3,73.0,67.4,59.0,100,91,70,30.00,29.78,15,3,21,1.05
2014-9-7,73.6,62.2,53.2,59.0,53.0,48.0,100,75,47,30.27,29.94,11,2,13,0.00
2014-9-8,73.0,59.5,50.6,53.0,45.8,40.0,91,64,33,30.50,30.27,10,2,11,0.00
2014-9-9,67.8,56.8,47.3,52.0,46.0,39.0,98,72,37,30.51,30.31,11,2,14,0.00
2014-9-10,70.8,58.7,49.4,57.0,52.7,47.0,100,83,56,30.32,30.11,10,2,10,0.00
2014-9-11,65.2,59.0,52.5,63.0,58.2,53.0,100,98,83,30.12,29.84,16,3,18,0.18
2014-9-12,64.6,56.4,49.5,61.0,48.3,43.0,100,76,54,30.31,29.88,18,4,18,0.00
2014-9-13,61.1,52.3,42.0,52.0,46.2,40.0,100,82,58,30.41,30.16,11,3,12,0.06
2014-9-14,59.9,52.9,44.0,55.0,47.5,41.0,100,83,62,30.27,30.13,19,3,22,0.01
2014-9-15,44.2,43.6,43.1,41.0,40.7,40.0,91,90,88,30.26,30.24,7,3,7,0.00
2014-9-17,53.9,51.8,50.9,51.0,48.5,45.0,98,88,73,30.05,29.52,6,1,6,0.00
2014-9-18,67.7,55.3,41.8,57.0,47.6,36.0,100,78,51,30.20,29.95,14,2,14,0.00
2014-9-19,57.2,44.9,36.1,37.0,31.6,26.0,89,63,32,30.46,30.19,16,2,17,0.00
2014-9-20,60.4,51.8,41.0,55.0,45.3,35.0,92,79,64,30.44,30.13,18,4,18,0.00
2014-9-21,71.5,61.5,55.7,66.0,60.4,54.0,100,97,84,30.13,29.64,16,3,16,0.18
2014-9-22,73.1,60.8,44.1,68.0,55.0,40.0,100,84,54,30.04,29.53,22,2,26,0.01
2014-9-23,65.3,51.0,40.6,47.0,43.5,39.0,96,77,49,30.46,30.03,17,2,18,0.00
2014-9-24,64.5,52.1,41.6,48.0,43.8,40.0,100,77,46,30.72,30.46,11,2,12,0.00
2014-9-25,67.0,53.3,45.2,55.0,49.2,45.0,100,88,51,30.63,30.31,8,2,8,0.00
2014-9-26,77.8,61.3,47.7,59.0,54.0,47.0,100,80,49,30.32,30.19,9,1,10,0.00
2014-9-27,80.6,68.0,56.4,60.0,56.7,53.0,95,70,45,30.22,30.15,12,2,13,0.00
2014-9-28,82.8,66.9,56.5,63.0,59.3,55.0,99,80,51,30.22,30.01,11,2,11,0.00
2014-9-29,70.7,58.3,48.8,62.0,55.2,49.0,99,90,73,30.18,30.00,15,3,15,0.00
2014-9-30,55.9,51.0,47.3,54.0,50.6,47.0,100,100,96,30.15,30.10,10,2,13,0.08
2014-10-1,59.1,54.9,51.7,54.0,52.9,51.0,100,94,84,30.26,30.13,11,2,13,0.01
2014-10-2,65.9,54.0,46.8,51.0,47.3,43.0,100,80,49,30.30,30.21,16,2,16,0.00
2014-10-3,68.9,54.9,43.6,56.0,48.8,42.0,100,82,52,30.24,30.00,11,2,12,0.00
2014-10-4,60.0,56.9,52.3,60.0,56.0,50.0,100,98,89,30.01,29.70,19,4,27,0.25
2014-10-5,62.5,57.5,47.4,62.0,54.9,43.0,100,92,72,29.97,29.63,16,3,16,0.53
2014-10-6,63.9,51.8,43.2,49.0,42.5,38.0,98,73,46,30.28,29.97,13,2,15,0.00
2014-10-7,64.2,56.1,48.0,57.0,51.3,47.0,100,85,62,30.29,30.11,24,4,24,0.00
2014-10-8,65.8,58.8,51.9,62.0,57.3,49.0,100,96,84,30.12,29.39,20,4,20,0.28
2014-10-9,61.9,51.0,42.1,50.0,42.8,38.0,98,76,46,29.97,29.82,15,1,15,0.00
2014-10-10,61.6,48.8,39.6,42.0,38.4,36.0,89,70,44,30.16,29.96,11,1,11,0.00
2014-10-11,53.0,44.7,39.6,43.0,40.0,37.0,94,84,65,30.21,30.11,7,1,7,0.00
2014-10-12,58.4,48.0,40.2,42.0,37.6,33.0,92,69,42,30.34,30.13,14,3,14,0.00
2014-10-13,63.6,51.6,41.0,51.0,44.8,36.0,98,80,52,30.40,30.29,16,3,16,0.00
2014-10-14,67.0,58.7,52.0,62.0,56.8,50.0,100,94,81,30.30,30.19,20,4,20,0.00
2014-10-15,73.3,63.8,59.3,66.0,62.0,58.0,100,95,79,30.20,30.12,18,4,18,0.00
2014-10-16,65.1,63.0,60.6,65.0,62.6,60.0,100,100,100,30.12,29.87,24,4,24,0.33
2014-10-17,63.6,60.2,53.9,63.0,59.2,54.0,100,97,88,29.87,29.63,20,4,22,1.63
2014-10-18,63.9,57.4,52.1,59.0,56.2,52.0,100,97,84,29.74,29.56,18,3,18,0.07
2014-10-19,52.8,44.8,38.5,53.0,39.9,33.0,100,83,63,29.85,29.56,20,4,20,0.00
2014-10-20,51.6,41.7,33.6,37.0,31.8,28.0,88,68,43,30.06,29.85,16,2,16,0.00
2014-10-21,52.4,46.9,42.0,49.0,42.0,32.0,100,84,61,30.22,30.06,14,2,14,0.34
2014-10-22,48.2,45.8,44.7,47.0,45.7,45.0,100,100,96,30.25,30.11,24,5,24,0.63
2014-10-23,50.0,48.4,45.3,50.0,48.3,45.0,100,100,100,30.11,29.74,25,6,29,2.59
2014-10-24,48.2,45.5,41.7,48.0,45.4,42.0,100,100,100,29.77,29.67,21,5,21,0.18
2014-10-25,60.4,48.5,42.0,46.0,42.1,37.0,100,82,43,29.73,29.53,17,3,20,0.00
2014-10-26,56.9,48.8,42.7,52.0,46.0,40.0,100,91,66,29.60,29.43,11,2,20,0.06
2014-10-27,52.7,46.5,40.6,42.0,39.5,37.0,96,78,61,30.00,29.59,24,4,24,0.01
2014-10-28,49.1,44.8,41.4,48.0,41.5,38.0,98,89,81,30.18,29.99,15,3,15,0.00
2014-10-29,57.2,54.3,49.1,56.0,54.0,48.0,100,100,97,30.06,29.82,11,2,11,0.13
2014-10-30,55.5,46.4,38.0,51.0,42.9,35.0,100,88,65,30.03,29.84,14,2,14,0.01
2014-10-31,51.0,42.8,36.5,39.0,36.3,33.0,95,78,56,30.12,30.02,10,3,10,0.00
2014-11-1,42.1,38.7,33.0,41.0,37.4,33.0,100,95,81,30.08,29.88,19,4,19,0.40
2014-11-2,33.8,32.4,31.0,35.0,32.6,31.0,100,100,100,29.90,28.91,35,9,36,0.05
2014-11-3,39.6,33.5,26.9,35.0,27.8,21.0,100,80,56,30.02,29.57,19,4,22,0.26
2014-11-4,46.2,37.6,29.5,40.0,28.6,21.0,90,69,52,30.22,30.02,9,2,9,0.18
2014-11-5,57.2,48.4,42.6,52.0,44.1,33.0,100,86,58,30.13,29.94,11,2,11,0.02
2014-11-6,47.4,43.8,39.1,45.0,38.9,32.0,100,84,61,30.13,29.63,11,1,11,0.42
2014-11-7,43.5,38.0,32.9,44.0,37.8,31.0,100,99,90,29.64,29.35,28,6,28,0.25
2014-11-8,41.6,34.2,29.8,32.0,24.7,21.0,93,68,48,29.97,29.61,22,3,24,0.00
2014-11-9,52.0,41.9,35.4,41.0,36.0,26.0,96,80,61,30.04,29.90,13,2,13,0.00
2014-11-10,51.8,42.6,33.9,41.0,36.2,29.0,98,78,59,30.28,30.04,13,2,13,0.00
2014-11-11,56.1,47.7,38.7,50.0,45.2,38.0,100,91,68,30.27,30.08,17,3,18,0.00
2014-11-12,53.1,49.9,39.3,53.0,49.8,38.0,100,99,97,30.09,29.91,14,3,14,0.01
2014-11-13,46.7,38.9,32.9,38.0,29.4,23.0,97,69,47,30.09,29.98,12,2,14,0.00
2014-11-14,35.5,31.3,24.7,35.0,30.5,23.0,100,96,80,30.03,29.87,12,2,13,0.01
2014-11-15,32.2,25.8,21.0,24.0,20.4,16.0,94,78,56,30.31,30.03,16,2,18,0.03
2014-11-16,37.5,30.7,19.9,29.0,24.1,16.0,91,76,67,30.37,30.16,12,2,12,0.06
2014-11-17,48.0,36.4,32.2,48.0,34.7,28.0,100,93,75,30.16,29.43,12,2,12,0.85
2014-11-18,43.1,32.4,23.5,43.0,29.4,16.0,100,88,63,29.77,29.38,17,2,17,0.02
2014-11-19,34.1,25.9,20.9,18.0,14.9,11.0,74,61,42,30.12,29.76,12,2,17,0.00
2014-11-20,39.7,30.7,22.7,29.0,22.2,14.0,93,69,54,30.08,29.25,17,2,17,0.00
2014-11-21,30.5,23.6,16.9,18.0,13.0,8.0,80,61,46,30.30,29.83,23,4,23,0.00
2014-11-22,35.6,25.3,13.0,24.0,16.1,8.0,82,66,50,30.33,29.96,13,3,21,0.00
2014-11-23,51.7,41.6,32.3,43.0,33.3,21.0,99,72,58,30.23,29.96,10,1,10,0.00
2014-11-24,58.7,51.4,42.4,59.0,51.3,41.0,100,100,97,30.20,29.63,31,7,32,0.67
2014-11-25,57.7,51.9,39.4,55.0,47.0,29.0,100,85,57,30.11,29.67,20,4,20,0.00
2014-11-26,39.6,35.3,31.5,33.0,30.4,26.0,100,83,63,30.31,29.52,24,2,24,0.00
2014-11-27,31.9,28.1,20.7,31.0,27.0,18.0,100,94,85,30.07,29.64,31,5,31,0.01
2014-11-28,25.8,20.8,15.8,21.0,17.7,14.0,94,86,69,30.15,30.02,15,3,15,0.00
2014-11-29,28.0,21.1,15.7,18.0,16.1,14.0,91,79,60,30.36,30.14,11,2,11,0.02
2014-11-30,48.1,39.7,22.4,47.0,38.6,18.0,100,95,86,30.31,30.00,22,5,22,0.04
2014-12-1,56.8,44.0,28.2,47.0,38.5,14.0,96,81,49,30.47,29.96,19,4,22,0.00
2014-12-2,28.1,21.5,16.6,16.0,10.7,8.0,73,58,45,30.80,30.45,19,3,19,0.00
2014-12-3,48.7,37.9,19.3,49.0,37.5,14.0,100,98,73,30.59,29.81,16,3,16,0.93
2014-12-4,38.2,28.7,15.1,35.0,20.1,4.0,100,70,35,30.61,29.93,19,4,20,0.01
2014-12-5,26.2,17.3,8.5,23.0,9.2,4.0,87,67,41,30.78,30.58,11,2,11,0.00
2014-12-6,38.2,33.5,26.1,38.0,33.5,23.0,100,99,84,30.58,30.08,14,3,14,0.76
2014-12-7,33.4,21.2,5.8,33.0,18.0,0.0,100,85,68,30.76,30.26,19,4,21,0.00
2014-12-8,20.9,11.7,3.3,14.0,4.3,0.0,79,66,47,30.84,30.67,16,2,17,0.00
2014-12-9,38.0,32.0,17.5,38.0,31.4,14.0,100,96,78,30.67,29.86,25,4,25,1.74
2014-12-10,41.0,37.7,35.7,41.0,37.8,36.0,100,100,100,29.86,29.48,28,6,28,0.86
2014-12-11,43.7,39.2,35.4,43.0,39.0,35.0,100,99,87,29.82,29.53,23,4,23,0.18
2014-12-12,39.6,35.7,33.3,39.0,35.7,33.0,100,99,94,29.89,29.77,11,2,15,0.00
2014-12-13,35.5,34.2,32.8,36.0,34.3,33.0,100,100,100,29.78,29.73,10,3,10,0.01
2014-12-14,36.5,34.3,31.6,37.0,34.1,31.0,100,98,94,29.88,29.77,15,4,15,0.00
2014-12-15,31.6,29.8,28.3,32.0,28.7,26.0,100,94,91,30.22,29.88,13,3,22,0.00
2014-12-16,38.6,32.9,27.9,39.0,31.7,26.0,100,96,86,30.25,30.07,10,2,10,0.03
2014-12-17,42.0,38.0,33.6,42.0,38.2,35.0,100,100,100,30.07,29.61,21,4,21,0.56
2014-12-18,33.6,31.5,29.3,35.0,31.5,28.0,100,99,95,29.78,29.60,19,6,21,0.00
2014-12-19,30.6,28.3,23.2,29.0,27.4,21.0,98,95,89,30.17,29.77,20,4,20,0.00
2014-12-20,25.3,23.2,19.3,26.0,22.9,18.0,98,95,91,30.38,30.16,13,3,13,0.00
2014-12-21,32.9,27.9,25.0,31.0,27.5,26.0,100,96,88,30.42,30.35,8,2,11,0.01
2014-12-22,36.0,31.2,24.9,33.0,30.2,26.0,100,95,82,30.48,30.41,7,2,7,0.04
2014-12-23,35.6,34.5,32.4,36.0,34.9,32.0,100,100,98,30.46,30.29,15,4,15,0.09
2014-12-24,52.7,40.2,35.2,53.0,40.2,35.0,100,100,100,30.30,29.66,14,4,14,0.77
2014-12-25,57.4,48.8,37.0,57.0,46.9,31.0,100,93,68,29.81,29.44,23,4,24,0.54
2014-12-26,47.6,38.2,32.7,32.0,29.5,28.0,84,71,51,30.11,29.80,16,2,17,0.00
2014-12-27,46.4,37.4,31.8,35.0,30.9,28.0,92,77,57,30.19,30.01,20,2,20,0.00
2014-12-28,42.9,38.9,32.8,43.0,37.5,28.0,100,95,74,30.01,29.68,14,3,15,0.39
2014-12-29,35.6,28.0,15.8,28.0,17.1,8.0,89,62,40,30.20,29.93,14,2,14,0.00
2014-12-30,17.2,13.2,7.4,8.0,2.2,-6.0,71,57,37,30.33,30.20,16,4,16,0.00
2014-12-31,21.7,12.1,4.9,8.0,3.6,0.0,80,64,45,30.27,30.09,14,1,14,0.00
2015-1-1,28.2,22.2,12.5,16.0,10.8,4.0,70,58,42,30.09,29.86,12,2,13,0.00
2015-1-2,31.8,23.0,12.8,18.0,9.6,0.0,73,54,37,30.42,29.85,23,3,23,0.01